Regional Weather Roundup
Issued by NWS

Home | Current Version | Previous Version | Graphics & Text | Print | Product List | Glossary On
Versions: 1 2 3 4 5 6 7 8 9 10 11 12 13 14 15 16 17 18 19 20 21 22 23 24 25 26 27 28 29 30 31 32 33 34 35 36 37 38 39 40 41 42 43 44 45 46 47 48 49 50
000
ASUS43 KLMK 230702
RWRKY
KENTUCKY REGIONAL WEATHER ROUNDUP
NATIONAL WEATHER SERVICE LOUISVILLE KY
300 AM EDT THU MAR 23 2017

NOTE "FAIR" INDICATES FEW OR NO CLOUDS BELOW 12,000 FEET
WITH NO SIGNIFICANT WEATHER AND/OR OBSTRUCTIONS TO VISIBILITY.

KYZ001>023-026-027-061>063-070>075-230800-
WESTERN AND SOUTH CENTRAL KENTUCKY

CITY           SKY/WX    TMP DP  RH WIND       PRES   REMARKS
PADUCAH        CLEAR     41  23  48 E6        30.32F
HENDERSON      CLEAR     36  19  51 E6        30.37F WCI  31
OWENSBORO      PTCLDY    39  20  46 E9        30.38F WCI  33
HOPKINSVILLE   CLEAR     39  23  52 E7        30.33F WCI  34
BOWLING GREEN  PTCLDY    35  22  58 NE5       30.36F WCI  31
GLASGOW        NOT AVBL
$$

KYZ024-025-028>034-038-045-046-053-230800-
NORTH CENTRAL KENTUCKY

CITY           SKY/WX    TMP DP  RH WIND       PRES   REMARKS
LOUISVILLE/SDF CLOUDY    36  17  46 E7        30.41F WCI  30
LOUISVILLE/LOU CLOUDY    35  19  52 E5        30.42S WCI  31
FORT KNOX      CLOUDY    34  20  55 NE8       30.36F WCI  27
$$

KYZ035>037-039>044-047>052-055>060-089>105-230800-
NORTHEAST KENTUCKY

CITY           SKY/WX    TMP DP  RH WIND       PRES   REMARKS
LEXINGTON      CLOUDY    33  18  53 NE10      30.40F WCI  25
COVINGTON      CLEAR     31  19  61 E14       30.44F WCI  21
FRANKFORT      PTCLDY    33  17  51 NE10      30.40F WCI  25
$$

KYZ054-064>069-076>088-106>120-230800-
SOUTHEAST KENTUCKY

CITY           SKY/WX    TMP DP  RH WIND       PRES   REMARKS
JACKSON        CLEAR     32  14  47 VRB6      30.38F WCI  26
LONDON         PTCLDY    36  14  40 NE5       30.36F WCI  32
SOMERSET       CLOUDY    34  16  47 E3        30.38S
MIDDLESBORO    MOCLDY    37  28  70 CALM      30.36F
MONTICELLO     MOSUNNY   34  22  61 NW5       30.37S WCI  30
$$




USA.gov is the U.S. government's official web portal to all federal, state and local government web resources and services.